Location: Carrières
(48.9495°N, 2.0407°E)
Time: 12:13:16
(UTC+00:00)

Transit 2A - Pass Details

Date: 24 April 2024
Orbit: 594 x 958 km, 66.7° (Epoch: 24 May)

Event Time Altitude Azimuth Distance (km) Brightness Sun altitude
Rises 04:11:19 0° 166° (SSE) 2,840 8.8 -5.6°
Reaches altitude 10° 04:14:14 10° 144° (SE) 1,974 8.3 -5.1°
Maximum altitude 04:16:57 16° 106° (ESE) 1,650 8.5 -4.7°
Drops below altitude 10° 04:19:46 10° 69° (ENE) 2,073 10.2 -4.3°
Sets 04:22:55 0° 48° (NE) 3,060 10.9 -3.9°
